Location: Étouvelles
(49.5207°N, 3.5808°E)
Time: 00:09:33
(UTC+00:00)

Cosmos 540 Rocket - Pass Details

Date: 29 September 2023
Orbit: 737 x 752 km, 74.1° (Epoch: 03 December)

Event Time Altitude Azimuth Distance (km) Brightness Sun altitude
Rises 21:35:56 0° 333° (NNW) 3,185 7.6 -36.6°
Reaches altitude 10° 21:38:19 10° 329° (NNW) 2,258 6.7 -36.8°
Enters shadow 21:40:28 25° 320° (NW) 1,483 5.5 -37.0°
